TimeCST,TemperatureF,Dew PointF,Humidity,Sea Level PressureIn,VisibilityMPH,Wind Direction,Wind SpeedMPH,Gust SpeedMPH,PrecipitationIn,Events,Conditions,WindDirDegrees,DateUTC
12:54 AM,64.0,61.0,90,30.10,7.0,SSE,9.2,-,N/A,,Overcast,150,2013-01-29 06:54:00
1:01 AM,64.4,60.8,88,30.11,7.0,SSE,10.4,-,N/A,,Overcast,150,2013-01-29 07:01:00
1:54 AM,64.0,61.0,90,30.09,6.0,SSE,8.1,-,N/A,,Overcast,160,2013-01-29 07:54:00
2:40 AM,64.4,62.6,94,30.08,6.0,SSE,8.1,-,N/A,,Overcast,160,2013-01-29 08:40:00
2:54 AM,64.9,62.1,90,30.07,6.0,South,9.2,-,N/A,,Overcast,170,2013-01-29 08:54:00
3:32 AM,64.4,62.6,94,30.06,6.0,SSE,8.1,-,N/A,,Overcast,150,2013-01-29 09:32:00
3:54 AM,64.9,62.1,90,30.05,6.0,SSE,10.4,-,N/A,,Overcast,150,2013-01-29 09:54:00
4:07 AM,64.4,62.6,94,30.05,6.0,SSE,9.2,-,N/A,,Overcast,160,2013-01-29 10:07:00
4:32 AM,64.4,62.6,94,30.04,6.0,SSE,10.4,-,N/A,,Overcast,150,2013-01-29 10:32:00
4:54 AM,64.9,63.0,93,30.02,6.0,SSE,11.5,-,N/A,,Overcast,150,2013-01-29 10:54:00
5:14 AM,66.2,62.6,88,30.03,6.0,South,8.1,-,N/A,,Overcast,170,2013-01-29 11:14:00
5:54 AM,66.0,63.0,90,30.02,9.0,SSE,11.5,-,N/A,,Overcast,160,2013-01-29 11:54:00
6:22 AM,66.2,62.6,88,30.03,10.0,SSE,8.1,-,N/A,,Overcast,160,2013-01-29 12:22:00
6:54 AM,66.9,63.0,87,30.02,10.0,SSE,10.4,-,N/A,,Overcast,160,2013-01-29 12:54:00
7:54 AM,68.0,62.1,81,30.01,10.0,SSE,10.4,19.6,N/A,,Overcast,160,2013-01-29 13:54:00
8:54 AM,69.1,62.1,78,30.01,10.0,SSE,12.7,21.9,N/A,,Overcast,160,2013-01-29 14:54:00
9:54 AM,71.1,62.1,73,30.00,10.0,SSE,17.3,25.3,N/A,,Overcast,160,2013-01-29 15:54:00
10:54 AM,73.9,61.0,64,29.99,10.0,South,20.7,28.8,N/A,,Mostly Cloudy,180,2013-01-29 16:54:00
11:08 AM,73.4,60.8,65,29.99,10.0,South,17.3,26.5,N/A,,Mostly Cloudy,180,2013-01-29 17:08:00
11:54 AM,75.9,61.0,60,29.94,10.0,South,21.9,29.9,N/A,,Scattered Clouds,180,2013-01-29 17:54:00
12:54 PM,75.9,61.0,60,29.89,10.0,South,19.6,32.2,N/A,,Mostly Cloudy,180,2013-01-29 18:54:00
1:54 PM,77.0,62.1,60,29.86,10.0,South,19.6,27.6,N/A,,Mostly Cloudy,170,2013-01-29 19:54:00
2:54 PM,78.1,63.0,60,29.83,10.0,South,19.6,26.5,N/A,,Mostly Cloudy,170,2013-01-29 20:54:00
3:54 PM,77.0,62.1,60,29.81,10.0,South,20.7,29.9,N/A,,Mostly Cloudy,170,2013-01-29 21:54:00
4:54 PM,77.0,62.1,60,29.77,10.0,SSE,17.3,26.5,N/A,,Scattered Clouds,160,2013-01-29 22:54:00
5:54 PM,73.9,62.1,66,29.76,10.0,South,13.8,-,N/A,,Clear,170,2013-01-29 23:54:00
6:54 PM,73.9,63.0,68,29.76,10.0,SSE,19.6,25.3,N/A,,Clear,160,2013-01-30 00:54:00
7:54 PM,73.0,64.0,73,29.75,10.0,SSE,20.7,29.9,N/A,,Scattered Clouds,160,2013-01-30 01:54:00
8:54 PM,73.0,64.9,76,29.71,10.0,South,24.2,33.4,N/A,,Scattered Clouds,170,2013-01-30 02:54:00
9:04 PM,73.4,64.4,73,29.72,10.0,South,23.0,34.5,N/A,,Mostly Cloudy,170,2013-01-30 03:04:00
9:54 PM,73.0,64.9,76,29.70,10.0,South,24.2,41.4,N/A,,Mostly Cloudy,170,2013-01-30 03:54:00
10:54 PM,73.0,64.9,76,29.70,10.0,South,26.5,35.7,N/A,,Overcast,170,2013-01-30 04:54:00
11:54 PM,73.9,64.0,71,29.69,10.0,South,18.4,34.5,N/A,,Overcast,180,2013-01-30 05:54:00